Mount Airy, NC

4:52 PM EST on December 06, 2019 (GMT -0500)
Mount Airy-Surry County

Weather History for KMWK - October, 2019

Change the Weather History Date:

Saturday, October 19, 2019

  Actual Average (KINT) Record (KINT)
Temperature  
Mean Temperature 51 °F -  
Max Temperature 62 °F 66 °F 87 °F (2016)
Min Temperature 40 °F 46 °F 29 °F (1976)
Degree Days  
Heating Degree Days 14    
Growing Degree Days 1 (Base 50)    
Moisture  
Dew Point 44 °F    
Average Humidity 77    
Maximum Humidity 93    
Minimum Humidity 49    
Precipitation  
Precipitation 0.00 in - - ()
Sea Level Pressure  
Sea Level Pressure 30.07 in    
Wind  
Wind Speed 1 mph ()    
Max Wind Speed 7 mph    
Max Gust Speed -    
Visibility 9.8 miles    
Events Rain    
Averages and records for this station are not official NWS values.
T = Trace of Precipitation, MM = Missing Value Source: Averaged Metar Reports

Daily Weather History Graph

Daily Weather History Graph

Search for Another Location

Airport or City:

Astronomy

Oct. 19, 2019 Rise Set
Actual Time 7:32 AM EDT 6:41 PM EDT
Civil Twilight 7:06 AM EDT 7:07 PM EDT
Nautical Twilight 6:36 AM EDT 7:37 PM EDT
Astronomical Twilight 6:06 AM EDT 8:06 PM EDT
Moon 10:55 PM EDT (10/19) 12:56 PM EDT (10/19)
Length of Visible Light 12h 00m
Length of Day
11h 08m
Waning Gibbous, 70% of the Moon is Illuminated
Oct 19
Waning Gibbous
Oct 21
Last Quarter
Oct 27
New
Nov 4
First Quarter
Nov 12
Full

Hourly Weather History & Observations

Time (EDT) Temp. Dew Point Humidity Pressure Visibility Wind Dir Wind Speed Gust Speed Precip Events Conditions
12:15 AM 46.4 °F 42.1 °F 85% 30.07 in 10.0 mi Calm Calm - N/A   Clear
12:35 AM 45.5 °F 42.1 °F 88% 30.07 in 10.0 mi Calm Calm - N/A   Clear
12:55 AM 45.7 °F 42.3 °F 88% 30.07 in 10.0 mi Calm Calm - N/A   Clear
1:15 AM 45.0 °F 42.1 °F 90% 30.07 in 10.0 mi Calm Calm - N/A   Clear
1:35 AM 45.0 °F 41.9 °F 89% 30.08 in 10.0 mi Calm Calm - N/A   Clear
1:55 AM 44.4 °F 41.5 °F 90% 30.08 in 10.0 mi Calm Calm - N/A   Clear
2:15 AM 43.7 °F 41.0 °F 90% 30.08 in 10.0 mi Calm Calm - N/A   Clear
2:35 AM 44.6 °F 41.7 °F 90% 30.09 in 10.0 mi Calm Calm - N/A   Clear
2:55 AM 44.6 °F 41.2 °F 88% 30.09 in 10.0 mi Calm Calm - N/A   Clear
3:15 AM 42.8 °F 40.1 °F 90% 30.08 in 10.0 mi Calm Calm - N/A   Clear
3:35 AM 42.4 °F 39.9 °F 91% 30.08 in 10.0 mi Calm Calm - N/A   Clear
3:55 AM 42.8 °F 40.3 °F 91% 30.08 in 10.0 mi Calm Calm - N/A   Clear
4:15 AM 42.1 °F 39.7 °F 91% 30.08 in 10.0 mi Calm Calm - N/A   Clear
4:35 AM 42.1 °F 39.9 °F 92% 30.07 in 10.0 mi Calm Calm - N/A   Clear
4:55 AM 41.0 °F 38.8 °F 92% 30.07 in 10.0 mi Calm Calm - N/A   Clear
5:15 AM 41.2 °F 39.2 °F 93% 30.08 in 10.0 mi Calm Calm - N/A   Clear
5:35 AM 41.0 °F 39.2 °F 93% 30.08 in 10.0 mi Calm Calm - N/A   Clear
5:55 AM 40.5 °F 38.5 °F 93% 30.08 in 10.0 mi Calm Calm - N/A   Clear
6:15 AM 41.0 °F 39.0 °F 93% 30.09 in 10.0 mi Calm Calm - N/A   Clear
6:35 AM 41.4 °F 39.2 °F 92% 30.09 in 10.0 mi Calm Calm - N/A   Clear
6:55 AM 41.4 °F 39.2 °F 92% 30.09 in 10.0 mi Calm Calm - N/A   Clear
7:15 AM 40.6 °F 38.7 °F 93% 30.09 in 10.0 mi Calm Calm - N/A   Clear
7:35 AM 40.1 °F 38.1 °F 93% 30.10 in 10.0 mi Calm Calm - N/A   Clear
7:55 AM 40.6 °F 38.5 °F 92% 30.10 in 10.0 mi Calm Calm - N/A   Clear
8:15 AM 42.6 °F 40.1 °F 91% 30.10 in 10.0 mi Calm Calm - N/A   Clear
8:35 AM 44.4 °F 41.9 °F 91% 30.10 in 10.0 mi Calm Calm - N/A   Clear
8:55 AM 46.8 °F 43.9 °F 90% 30.10 in 10.0 mi Calm Calm - N/A   Clear
9:15 AM 48.2 °F 44.8 °F 88% 30.11 in 10.0 mi Calm Calm - N/A   Clear
9:35 AM 49.1 °F 45.1 °F 86% 30.13 in 10.0 mi Calm Calm - N/A   Clear
9:55 AM 49.5 °F 45.9 °F 87% 30.14 in 10.0 mi Calm Calm - N/A   Clear
10:15 AM 52.0 °F 47.5 °F 85% 30.14 in 10.0 mi Calm Calm - N/A   Clear
10:35 AM 54.0 °F 48.6 °F 82% 30.14 in 10.0 mi Calm Calm - N/A   Clear
10:55 AM 56.3 °F 46.0 °F 68% 30.14 in 10.0 mi Calm Calm - N/A   Clear
11:15 AM 57.4 °F 45.0 °F 63% 30.14 in 10.0 mi Calm Calm - N/A   Clear
11:55 AM 57.6 °F 43.5 °F 59% 30.13 in 10.0 mi SSW 4.6 mph - N/A   Clear
12:15 PM 58.1 °F 43.9 °F 59% 30.13 in 10.0 mi South 3.5 mph - N/A   Clear
12:35 PM 58.5 °F 44.1 °F 59% 30.12 in 10.0 mi Calm Calm - N/A   Clear
12:55 PM 60.1 °F 44.4 °F 56% 30.11 in 10.0 mi South 3.5 mph - N/A   Clear
1:15 PM 59.5 °F 43.9 °F 56% 30.10 in 10.0 mi South 4.6 mph - N/A   Clear
1:35 PM 59.7 °F 44.2 °F 57% 30.09 in 10.0 mi Calm Calm - N/A   Clear
1:55 PM 60.3 °F 45.0 °F 57% 30.09 in 10.0 mi Calm Calm - N/A   Clear
2:15 PM 61.0 °F 43.7 °F 53% 30.07 in 10.0 mi ESE 3.5 mph - N/A   Clear
2:35 PM 61.2 °F 43.3 °F 52% 30.07 in 10.0 mi South 5.8 mph - N/A   Clear
2:55 PM 61.9 °F 43.2 °F 50% 30.06 in 10.0 mi SE 5.8 mph - N/A   Clear
3:15 PM 62.2 °F 43.7 °F 51% 30.05 in 10.0 mi SSE 6.9 mph - N/A   Clear
3:35 PM 61.9 °F 42.6 °F 49% 30.05 in 10.0 mi ESE 5.8 mph - N/A   Clear
3:55 PM 61.7 °F 42.1 °F 49% 30.05 in 10.0 mi SSE 5.8 mph - N/A   Clear
4:15 PM 60.8 °F 42.3 °F 50% 30.05 in 10.0 mi SSE 3.5 mph - N/A   Clear
4:35 PM 60.4 °F 42.1 °F 51% 30.04 in 10.0 mi SSE 4.6 mph - N/A   Clear
4:55 PM 60.6 °F 43.0 °F 52% 30.04 in 10.0 mi ESE 3.5 mph - N/A   Clear
5:15 PM 60.8 °F 43.9 °F 54% 30.04 in 10.0 mi East 5.8 mph - N/A   Scattered Clouds
5:55 PM 59.9 °F 45.1 °F 58% 30.03 in 10.0 mi Calm Calm - N/A   Clear
6:15 PM 59.7 °F 45.7 °F 60% 30.02 in 10.0 mi Calm Calm - N/A   Clear
6:35 PM 59.0 °F 46.6 °F 63% 30.01 in 10.0 mi Calm Calm - N/A   Clear
6:55 PM 58.6 °F 46.9 °F 65% 30.01 in 10.0 mi East 3.5 mph - N/A   Scattered Clouds
7:15 PM 58.1 °F 46.6 °F 65% 30.01 in 10.0 mi East 3.5 mph - N/A   Scattered Clouds
7:35 PM 58.5 °F 46.8 °F 65% 30.02 in 10.0 mi East 3.5 mph - N/A   Mostly Cloudy
7:55 PM 58.5 °F 47.1 °F 66% 30.02 in 10.0 mi ENE 3.5 mph - N/A   Overcast
8:15 PM 58.5 °F 46.4 °F 64% 30.02 in 10.0 mi East 3.5 mph - N/A   Overcast
8:35 PM 58.5 °F 46.6 °F 65% 30.02 in 10.0 mi Calm Calm - N/A   Overcast
8:55 PM 56.8 °F 47.7 °F 71% 30.02 in 10.0 mi ESE 3.5 mph - N/A Rain Rain
9:15 PM 55.2 °F 50.0 °F 83% 30.03 in 10.0 mi Calm Calm - N/A Rain Light Rain
9:35 PM 54.0 °F 50.5 °F 88% 30.03 in 7.0 mi Calm Calm - N/A Rain Rain
9:55 PM 53.6 °F 50.9 °F 91% 30.02 in 7.0 mi NE 3.5 mph - N/A Rain Rain
10:15 PM 53.4 °F 50.7 °F 91% 30.01 in 7.0 mi North 4.6 mph - N/A Rain Light Rain
10:35 PM 53.2 °F 50.2 °F 89% 29.99 in 10.0 mi NE 4.6 mph - N/A Rain Light Rain
10:55 PM 52.7 °F 49.6 °F 89% 29.99 in 10.0 mi NE 4.6 mph - N/A Rain Rain
11:15 PM 52.7 °F 49.5 °F 89% 29.99 in 10.0 mi NE 4.6 mph - N/A Rain Rain
11:35 PM 52.2 °F 49.5 °F 91% 29.97 in 5.0 mi NNE 3.5 mph - N/A Rain Rain
11:55 PM 52.2 °F 49.3 °F 90% 29.97 in 7.0 mi NNE 5.8 mph - N/A Rain Rain